Location: Staunton
(38.1490°N, 79.0720°W)
Time: 00:04:01
(UTC-05:00)

ISS - Pass Details

Date: 09 December 2019
Orbit: 411 x 421 km, 51.6° (Epoch: 15 December)

Event Time Altitude Azimuth Distance (km) Brightness Sun altitude
Rises 19:26:12 0° 295° (WNW) 2,358 0.9 -28.7°
Reaches altitude 10° 19:28:41 10° 277° (W) 1,493 -0.1 -29.2°
Enters shadow 19:30:02 17° 256° (WSW) 1,156 -0.8 -29.5°
